TimeCDT,TemperatureF,Dew PointF,Humidity,Sea Level PressureIn,VisibilityMPH,Wind Direction,Wind SpeedMPH,Gust SpeedMPH,PrecipitationIn,Events,Conditions,WindDirDegrees,DateUTC
12:15 AM,69.8,-9999,N/A,30.05,10.0,Calm,Calm,-,N/A,,Clear,0,2013-06-20 05:15:00
12:35 AM,69.8,-9999,N/A,30.06,7.0,Calm,Calm,-,N/A,,Clear,0,2013-06-20 05:35:00
12:55 AM,69.8,-9999,N/A,30.05,10.0,Calm,Calm,-,N/A,,Clear,0,2013-06-20 05:55:00
1:15 AM,69.8,-9999,N/A,30.05,10.0,Calm,Calm,-,N/A,,Clear,0,2013-06-20 06:15:00
1:35 AM,69.8,-9999,N/A,30.05,10.0,Calm,Calm,-,N/A,,Clear,0,2013-06-20 06:35:00
1:55 AM,68.0,-9999,N/A,30.04,7.0,Calm,Calm,-,N/A,,Clear,0,2013-06-20 06:55:00
2:15 AM,68.0,-9999,N/A,30.05,7.0,Calm,Calm,-,N/A,,Clear,0,2013-06-20 07:15:00
2:35 AM,68.0,-9999,N/A,30.04,7.0,Calm,Calm,-,N/A,,Clear,0,2013-06-20 07:35:00
2:55 AM,68.0,-9999,N/A,30.04,5.0,Calm,Calm,-,N/A,,Clear,0,2013-06-20 07:55:00
3:15 AM,68.0,-9999,N/A,30.04,7.0,Calm,Calm,-,N/A,,Clear,0,2013-06-20 08:15:00
3:35 AM,68.0,-9999,N/A,30.05,7.0,Calm,Calm,-,N/A,,Clear,0,2013-06-20 08:35:00
3:55 AM,68.0,-9999,N/A,30.04,5.0,Calm,Calm,-,N/A,,Clear,0,2013-06-20 08:55:00
4:15 AM,68.0,-9999,N/A,30.04,5.0,Calm,Calm,-,N/A,,Clear,0,2013-06-20 09:15:00
4:35 AM,68.0,-9999,N/A,30.05,5.0,Calm,Calm,-,N/A,,Clear,0,2013-06-20 09:35:00
4:55 AM,68.0,-9999,N/A,30.06,4.0,Calm,Calm,-,N/A,,Clear,0,2013-06-20 09:55:00
5:15 AM,68.0,-9999,N/A,30.06,5.0,Calm,Calm,-,N/A,,Clear,0,2013-06-20 10:15:00
5:35 AM,68.0,-9999,N/A,30.07,5.0,Calm,Calm,-,N/A,,Scattered Clouds,0,2013-06-20 10:35:00
5:55 AM,68.0,-9999,N/A,30.07,4.0,Calm,Calm,-,N/A,,Overcast,0,2013-06-20 10:55:00
6:15 AM,68.0,-9999,N/A,30.07,2.5,Calm,Calm,-,N/A,,Scattered Clouds,0,2013-06-20 11:15:00
6:35 AM,68.0,-9999,N/A,30.07,2.5,Calm,Calm,-,N/A,,Clear,0,2013-06-20 11:35:00
6:55 AM,68.0,-9999,N/A,30.08,5.0,Calm,Calm,-,N/A,,Clear,0,2013-06-20 11:55:00
7:15 AM,69.8,-9999,N/A,30.09,5.0,Calm,Calm,-,N/A,,Clear,0,2013-06-20 12:15:00
7:35 AM,71.6,-9999,N/A,30.09,7.0,Calm,Calm,-,N/A,,Clear,0,2013-06-20 12:35:00
7:55 AM,71.6,-9999,N/A,30.10,10.0,Calm,Calm,-,N/A,,Scattered Clouds,0,2013-06-20 12:55:00
8:15 AM,73.4,-9999,N/A,30.11,7.0,Calm,Calm,-,N/A,,Mostly Cloudy,0,2013-06-20 13:15:00
8:35 AM,75.2,75.2,100,30.11,10.0,Calm,Calm,-,N/A,,Scattered Clouds,0,2013-06-20 13:35:00
8:55 AM,77.0,77.0,100,30.11,10.0,Calm,Calm,-,N/A,,Clear,0,2013-06-20 13:55:00
9:15 AM,78.8,78.8,100,30.11,10.0,Calm,Calm,-,N/A,,Clear,0,2013-06-20 14:15:00
9:35 AM,80.6,71.6,74,30.11,10.0,ENE,3.5,-,N/A,,Scattered Clouds,60,2013-06-20 14:35:00
9:55 AM,84.2,71.6,66,30.12,10.0,SSE,4.6,-,N/A,,Scattered Clouds,150,2013-06-20 14:55:00
10:15 AM,86.0,69.8,58,30.11,10.0,ESE,3.5,-,N/A,,Scattered Clouds,120,2013-06-20 15:15:00
10:35 AM,86.0,69.8,58,30.11,10.0,SE,4.6,-,N/A,,Scattered Clouds,130,2013-06-20 15:35:00
10:55 AM,86.0,69.8,58,30.11,10.0,SSE,4.6,-,N/A,,Clear,160,2013-06-20 15:55:00
11:15 AM,87.8,69.8,55,30.12,10.0,SSE,4.6,-,N/A,,Scattered Clouds,150,2013-06-20 16:15:00
11:35 AM,87.8,69.8,55,30.12,10.0,South,3.5,-,N/A,,Scattered Clouds,170,2013-06-20 16:35:00
11:55 AM,87.8,69.8,55,30.12,10.0,SSW,6.9,-,N/A,,Mostly Cloudy,200,2013-06-20 16:55:00
12:15 PM,87.8,69.8,55,30.11,10.0,SSE,5.8,-,N/A,,Mostly Cloudy,150,2013-06-20 17:15:00
12:35 PM,89.6,69.8,52,30.11,10.0,South,5.8,-,N/A,,Mostly Cloudy,190,2013-06-20 17:35:00
12:55 PM,89.6,69.8,52,30.11,10.0,SSE,4.6,-,N/A,,Mostly Cloudy,150,2013-06-20 17:55:00
1:15 PM,89.6,69.8,52,30.10,10.0,South,4.6,-,N/A,,Mostly Cloudy,170,2013-06-20 18:15:00
1:35 PM,89.6,69.8,52,30.10,10.0,SSW,5.8,-,N/A,,Scattered Clouds,200,2013-06-20 18:35:00
1:55 PM,89.6,69.8,52,30.10,10.0,Calm,Calm,-,N/A,,Scattered Clouds,0,2013-06-20 18:55:00
2:15 PM,91.4,69.8,49,30.09,10.0,SE,3.5,-,N/A,,Scattered Clouds,130,2013-06-20 19:15:00
2:35 PM,91.4,69.8,49,30.08,10.0,SSW,4.6,-,N/A,,Clear,210,2013-06-20 19:35:00
2:55 PM,89.6,69.8,52,30.08,10.0,SSW,4.6,-,N/A,,Scattered Clouds,210,2013-06-20 19:55:00
3:15 PM,91.4,69.8,49,30.08,10.0,South,5.8,-,N/A,,Scattered Clouds,180,2013-06-20 20:15:00
3:35 PM,91.4,69.8,49,30.08,10.0,SW,3.5,-,N/A,,Scattered Clouds,230,2013-06-20 20:35:00
3:55 PM,91.4,69.8,49,30.07,10.0,South,5.8,-,N/A,,Scattered Clouds,180,2013-06-20 20:55:00
4:15 PM,91.4,71.6,52,30.06,10.0,South,5.8,-,N/A,,Scattered Clouds,190,2013-06-20 21:15:00
4:35 PM,91.4,71.6,52,30.06,10.0,SE,5.8,-,N/A,,Scattered Clouds,140,2013-06-20 21:35:00
4:55 PM,91.4,69.8,49,30.05,10.0,South,5.8,-,N/A,,Scattered Clouds,170,2013-06-20 21:55:00
5:15 PM,91.4,69.8,49,30.05,10.0,South,4.6,-,N/A,,Clear,170,2013-06-20 22:15:00
5:35 PM,89.6,71.6,55,30.04,10.0,South,5.8,-,N/A,,Clear,170,2013-06-20 22:35:00
5:55 PM,89.6,69.8,52,30.04,10.0,SSW,3.5,-,N/A,,Clear,200,2013-06-20 22:55:00
6:15 PM,89.6,69.8,52,30.03,10.0,South,3.5,-,N/A,,Clear,190,2013-06-20 23:15:00
6:35 PM,89.6,69.8,52,30.03,10.0,South,4.6,-,N/A,,Clear,190,2013-06-20 23:35:00
6:55 PM,89.6,71.6,55,30.03,10.0,SE,4.6,-,N/A,,Scattered Clouds,140,2013-06-20 23:55:00
7:15 PM,89.6,71.6,55,30.03,10.0,SSE,3.5,-,N/A,,Clear,160,2013-06-21 00:15:00
7:35 PM,87.8,71.6,58,30.03,10.0,SSE,3.5,-,N/A,,Clear,160,2013-06-21 00:35:00
7:55 PM,87.8,71.6,58,30.03,10.0,Calm,Calm,-,N/A,,Clear,0,2013-06-21 00:55:00
8:15 PM,86.0,71.6,62,30.04,10.0,Calm,Calm,-,N/A,,Clear,0,2013-06-21 01:15:00
8:35 PM,86.0,71.6,62,30.04,10.0,Calm,Calm,-,N/A,,Clear,0,2013-06-21 01:35:00
8:55 PM,82.4,71.6,70,30.04,10.0,Calm,Calm,-,N/A,,Clear,0,2013-06-21 01:55:00
9:15 PM,82.4,71.6,70,30.05,10.0,Calm,Calm,-,N/A,,Clear,0,2013-06-21 02:15:00
9:35 PM,80.6,73.4,79,30.05,10.0,Calm,Calm,-,N/A,,Clear,0,2013-06-21 02:35:00
9:55 PM,80.6,73.4,79,30.06,10.0,Calm,Calm,-,N/A,,Clear,0,2013-06-21 02:55:00
10:15 PM,78.8,73.4,83,30.07,10.0,Calm,Calm,-,N/A,,Clear,0,2013-06-21 03:15:00
10:35 PM,78.8,73.4,83,30.08,10.0,Calm,Calm,-,N/A,,Clear,0,2013-06-21 03:35:00
10:55 PM,77.0,77.0,100,30.08,10.0,Calm,Calm,-,N/A,,Clear,0,2013-06-21 03:55:00
11:15 PM,77.0,77.0,100,30.09,10.0,Calm,Calm,-,N/A,,Clear,0,2013-06-21 04:15:00
11:35 PM,77.0,-9999,N/A,30.09,7.0,Calm,Calm,-,N/A,,Clear,0,2013-06-21 04:35:00
11:55 PM,77.0,-9999,N/A,30.10,10.0,Calm,Calm,-,N/A,,Clear,0,2013-06-21 04:55:00